User: anonymous   Login
Location: Quebec
(46.8000°N, 71.2500°W)
Time: 10:29:12
(UTC-04:00)
Language:

CZ-4B R/B - Orbit

View from above orbital plane
View from above orbital plane
View from above satellite
View from above satellite

Ground track
Ground track

The orbit data is extracted from the following two-line orbital elements,

1 29093U 06015B   16180.49122641  .00003412  00000-0  89567-4 0  9999
2 29093  97.4844 278.0403 0070200 146.0664 214.5100 15.36853998563151
Epoch (UTC): 28 June 2016 11:47:21
Eccentricity: 0.0070200
inclination: 97.4844°
perigee height: 407 km
apogee height: 503 km
right ascension of ascending node: 278.0403°
argument of perigee: 146.0664°
revolutions per day: 15.36853998
mean anomaly at epoch: 214.5100°
orbit number at epoch: 56315

The dashed part of the orbit path shows where the satellite is in the earth's shadow,  

DLR